#timestamp,LO_Frequency,Hit,StdDev 
1639299615.4,286047000.0,N
1639299635.2,286047000.7,N
1639299655.0,286046998.1,N
1639299655.9,286046998.1,N
1639299675.8,286047000.6,N
1639299695.6,286046998.1,N
1639299715.5,286046998.1,N
1639299735.3,286047000.8,N
1639299755.1,286046998.6,N
1639299775.9,286046998.5,N
1639299795.7,286047011.9,Y
1639299815.5,286046995.5,P
1639299835.4,286046995.9,N
1639299855.2,286046997.4,N
1639299875.1,286046997.0,N
1639299876.0,286046997.0,N
1639299895.8,286046997.8,N
1639299915.6,286046997.0,N
1639299935.5,286046997.7,N
1639299955.3,286046997.8,N
1639299975.1,286046997.2,N
1639299995.9,286046996.8,N
1639300015.7,286046999.0,N
1639300035.6,286047001.0,N
1639300055.4,286047001.1,N
1639300075.2,286046998.5,N
1639300095.1,286046998.5,N
1639300096.0,286046998.5,N
1639300115.8,286046999.5,N
1639300135.6,286046996.7,N
1639300155.5,286046999.1,N
1639300175.3,286046998.5,N
1639300195.2,286047001.1,N
1639300215.9,286046998.4,N
1639300235.7,286046998.2,N
1639300255.6,286046998.4,N
1639300275.4,286047000.6,N
1639300295.2,286047000.4,N
1639300315.1,286047000.7,N
1639300316.0,286047000.7,N
1639300335.8,286047000.2,N
1639300355.7,286047002.0,N
1639300375.5,286047001.4,N
1639300395.3,286047002.5,N
1639300415.2,286047000.1,N
1639300435.0,286046999.7,N
1639300435.9,286046999.7,N
1639300455.7,286047001.2,N
1639300475.6,286046996.7,N
1639300495.4,286046997.5,N
1639300515.3,286046997.7,N
1639300535.1,286046997.8,N
1639300536.0,286046997.8,N
1639300555.8,286046995.1,Y
1639300575.7,286046997.1,P
1639300595.5,286046998.9,N
1639300615.4,286046998.2,N
1639300635.2,286046998.8,N
1639300655.0,286046998.7,N
1639300655.9,286046998.7,N
1639300675.8,286046995.4,Y
1639300695.6,286046997.1,P
1639300715.4,286047001.2,N
1639300735.3,286046998.2,N
1639300755.1,286046998.7,N
1639300775.9,286047001.2,N
1639300795.7,286046999.9,N
1639300815.5,286047000.2,N
1639300835.4,286047000.3,N
1639300855.2,286047001.2,N
1639300875.1,286047002.4,N
1639300876.0,286047002.4,N
1639300895.8,286047004.4,N
1639300915.6,286047002.6,N
1639300935.5,286047000.5,N
1639300955.3,286047002.7,N
1639300975.1,286047000.4,N
1639300995.9,286047002.6,N
1639301015.7,286047000.5,N
1639301035.6,286047002.0,N
1639301055.4,286047001.7,N
1639301075.2,286046998.2,N
1639301095.1,286047000.3,N
1639301096.0,286047000.3,N
1639301115.8,286047001.9,N
1639301135.7,286047002.5,N
1639301155.5,286047000.0,N
1639301175.3,286047000.6,N
1639301195.2,286046998.4,N
1639301215.9,286046999.1,N
1639301235.7,286046998.1,N
1639301255.6,286047000.1,N
1639301275.4,286047002.5,N
1639301295.3,286047000.1,N
1639301315.1,286047000.0,N
1639301316.0,286047000.0,N
1639301335.8,286047000.1,N
1639301355.7,286047002.6,N
1639301375.5,286047001.9,N
1639301395.3,286047000.5,N
1639301415.2,286047002.8,N
1639301435.0,286047001.1,N
1639301435.9,286047001.1,N
1639301455.8,286047000.7,N
1639301475.6,286046999.9,N
1639301495.4,286047000.0,N
1639301515.3,286047000.8,N
1639301535.1,286047000.7,N
1639301555.9,286047000.3,N
1639301575.7,286047000.8,N
1639301595.5,286047002.6,N
1639301615.4,286047004.3,Y
1639301635.2,286047005.4,P
1639301655.0,286047007.3,P
1639301655.9,286047007.3,N
1639301675.8,286047006.8,N
1639301695.6,286047007.2,N
1639301715.5,286047003.7,N
1639301735.3,286047002.2,N
1639301755.1,286047000.7,N
1639301775.9,286046998.7,N
1639301795.7,286047000.5,N
1639301815.5,286047000.8,N
1639301835.4,286046998.4,N
1639301855.2,286047001.1,N
1639301875.1,286047000.6,N
1639301876.0,286047000.6,N
1639301895.8,286047001.1,N
1639301915.6,286046999.3,N
1639301935.5,286046998.7,N
1639301955.3,286047000.3,N
1639301975.2,286047000.3,N
1639301995.9,286047002.2,N
1639302015.7,286047002.2,N
1639302035.6,286047000.4,N
1639302055.4,286046999.8,N
1639302075.2,286047000.6,N
1639302095.1,286046999.5,N
1639302096.0,286046999.5,N
1639302115.8,286046998.6,N
1639302135.7,286046999.2,N
1639302155.5,286046999.2,N
1639302175.3,286046996.9,N
1639302195.2,286046999.1,N
1639302215.0,286046996.6,N
1639302215.9,286046996.6,N
1639302235.8,286046998.9,N
1639302255.6,286046999.0,N
1639302275.4,286046998.7,N
1639302295.3,286047000.1,N
1639302315.1,286046998.3,N
1639302335.8,286046998.8,N
1639302355.7,286046998.3,N
1639302375.5,286047000.2,N
1639302395.4,286047001.2,N
1639302415.2,286047001.0,N
1639302435.0,286047001.0,N
1639302435.9,286047001.0,N
1639302455.8,286046998.4,N
1639302475.6,286047001.0,N
1639302495.4,286047002.7,N
1639302515.3,286047002.4,N
1639302535.1,286047001.2,N
1639302555.9,286047000.3,N
1639302575.7,286047000.4,N
1639302595.5,286046999.7,N
1639302615.4,286047001.0,N
1639302635.2,286047000.7,N
1639302655.0,286047002.6,N
1639302655.9,286047002.6,N
1639302675.8,286047010.4,Y
1639302695.6,286047015.1,P
1639302715.5,286047015.3,N
1639302735.3,286047012.4,N
1639302755.1,286047010.7,N
1639302775.9,286047008.3,N
1639302795.7,286047008.6,N
1639302815.5,286047007.9,N
1639302835.4,286047006.1,N
1639302855.2,286047008.2,N
1639302875.1,286047008.1,N
1639302876.0,286047008.1,N
1639302895.8,286047007.8,N
1639302915.6,286047007.9,N
1639302935.5,286047008.0,N
1639302955.3,286047008.6,N
1639302975.1,286047008.8,N
1639302995.9,286047008.3,N
1639303015.7,286047008.4,N
1639303035.6,286047006.5,N
1639303055.4,286047008.4,N
1639303075.2,286047010.7,Y
1639303095.1,286047000.8,P
1639303096.0,286047000.8,N
1639303115.8,286046999.4,N
1639303135.7,286046999.2,N
1639303155.5,286046996.6,N
1639303175.3,286046996.8,N
1639303195.2,286046996.8,N
